Location: Passau
(48.5830°N, 13.4830°E)
Time: 22:00:48
(UTC+02:00)

S-56A Canister/Altair - Pass Details

Date: 23 May 2024
Orbit: 637 x 2489 km, 38.9° (Epoch: 16 June)

Event Time Altitude Azimuth Distance (km) Brightness Sun altitude
Rises 12:51:23 0° 272° (W) 4,414 11.4 62.0°
Reaches altitude 10° 12:56:09 10° 252° (WSW) 3,028 10.8 62.1°
Maximum altitude 12:59:51 15° 220° (SW) 2,383 10.6 62.1°
Drops below altitude 10° 13:03:00 10° 187° (S) 2,479 10.8 62.1°
Sets 13:06:17 0° 163° (SSE) 3,188 11.1 62.1°
